Página principal
METAR-TAF:

METAR-TAF

Aeroportos :

Remada, Tunísia

latitude: 32-19N, longitude: 010-24E, altura: 300 m

Observação actual do tempo

O boletim foi feito há 20 minutos, às 01:00 UTC
Vento calmo
Temperatura 20°C
Humidade 60%
Pressão 1007 hPa

METAR: DTTD 180100Z AUTO 00000KT NCD 20/12 Q1007

Hora: 02:20 (01:20 UTC)


TAF: em falta

Observações e previsões do tempo de mais de 4000 aeroportos (mensagens METAR e TAF).

As estações disponíveis são os pontos amarelos e vermelhos sobre o mapa.

Mova o rato sobre o mapa para ver o nome da estação.

Depois clique no ponto para visualizar as observações e previsões meteorológicas.

Para alterar o mapa : clique nos botões verdes com uma cruz preta para aumentar o zoom; no botão verde com uma pitada de zoom; ou nas setas verdes para mapas adjacentes.


METAR-TAF: